User: anonymous   Login
Location: Unspecified
(0.0000°N, 0.0000°E)
Time: 05:24:04
(UTC+00:00)
Language:

STARLINK-35012 - Orbit

View from above orbital plane
View from above orbital plane
View from above satellite
View from above satellite

Ground track
Ground track

The orbit is defined by the following mean orbital elements,

1 65384U          26145.35767209 +.00000000 +00000-0 +23530-3 0 00002
2 65384  97.4474  16.6802 0002417  85.5912 274.5591 15.05656796    03
Epoch (UTC): 25 May 2026 08:35:02
Eccentricity: 0.0002417
inclination: 97.4474°
perigee height: 548 km
apogee height: 551 km
right ascension of ascending node: 16.6802°
argument of perigee: 85.5912°
revolutions per day: 15.05656796
mean anomaly at epoch: 274.5591°

The dashed part of the orbit path shows where the satellite is in the earth's shadow,  

DLR